TimeMDT,TemperatureF,Dew PointF,Humidity,Sea Level PressureIn,VisibilityMPH,Wind Direction,Wind SpeedMPH,Gust SpeedMPH,PrecipitationIn,Events,Conditions,WindDirDegrees,DateUTC
12:53 AM,30.0,19.9,66,30.32,10.0,North,5.8,-,N/A,,Clear,360,2012-10-26 06:53:00
1:53 AM,25.0,17.1,72,30.34,10.0,North,5.8,-,N/A,,Clear,350,2012-10-26 07:53:00
2:53 AM,21.0,15.1,78,30.36,10.0,NNW,3.5,-,N/A,,Clear,340,2012-10-26 08:53:00
3:53 AM,23.0,15.1,72,30.35,10.0,NNW,3.5,-,N/A,,Clear,330,2012-10-26 09:53:00
4:53 AM,23.0,16.0,74,30.35,10.0,Calm,Calm,-,N/A,,Clear,0,2012-10-26 10:53:00
5:53 AM,19.0,12.9,77,30.40,10.0,Calm,Calm,-,N/A,,Clear,0,2012-10-26 11:53:00
7:53 AM,21.0,15.1,78,30.44,10.0,Calm,Calm,-,N/A,,Clear,0,2012-10-26 13:53:00
8:53 AM,26.1,19.0,75,30.43,10.0,Calm,Calm,-,N/A,,Clear,0,2012-10-26 14:53:00
10:53 AM,37.9,17.1,43,30.40,10.0,Variable,4.6,-,N/A,,Clear,0,2012-10-26 16:53:00
11:53 AM,42.1,14.0,32,30.36,10.0,North,5.8,-,N/A,,Clear,360,2012-10-26 17:53:00
12:53 PM,45.0,12.9,27,30.32,10.0,Variable,5.8,-,N/A,,Clear,0,2012-10-26 18:53:00
1:53 PM,46.0,10.9,24,30.30,10.0,Calm,Calm,-,N/A,,Clear,0,2012-10-26 19:53:00
3:53 PM,50.0,10.0,20,30.24,10.0,Calm,Calm,-,N/A,,Clear,0,2012-10-26 21:53:00
4:53 PM,51.1,12.0,21,30.20,10.0,Calm,Calm,-,N/A,,Clear,0,2012-10-26 22:53:00
5:53 PM,48.9,12.0,23,30.22,10.0,Calm,Calm,-,N/A,,Clear,0,2012-10-26 23:53:00
6:53 PM,42.1,12.9,31,30.25,10.0,Calm,Calm,-,N/A,,Clear,0,2012-10-27 00:53:00
7:53 PM,39.0,15.1,38,30.26,10.0,ESE,5.8,-,N/A,,Clear,120,2012-10-27 01:53:00
8:53 PM,37.9,15.1,39,30.25,10.0,SE,5.8,-,N/A,,Clear,130,2012-10-27 02:53:00
9:53 PM,32.0,14.0,48,30.25,10.0,South,3.5,-,N/A,,Clear,170,2012-10-27 03:53:00
10:53 PM,34.0,14.0,44,30.22,10.0,SSE,5.8,-,N/A,,Clear,150,2012-10-27 04:53:00
11:53 PM,28.9,15.1,56,30.22,10.0,NE,8.1,-,N/A,,Clear,50,2012-10-27 05:53:00